PST,Max TemperatureF,Mean TemperatureF,Min TemperatureF,Max Dew PointF,MeanDew PointF,Min DewpointF,Max Humidity, Mean Humidity, Min Humidity, Max Sea Level PressureIn, Mean Sea Level PressureIn, Min Sea Level PressureIn, Max VisibilityMiles, Mean VisibilityMiles, Min VisibilityMiles, Max Wind SpeedMPH, Mean Wind SpeedMPH, Max Gust SpeedMPH,PrecipitationIn, CloudCover, Events, WindDirDegrees
2013-11-1,82,61,40,45,42,37,92,59,26,30.17,30.09,30.01,10,10,6,12,1,20,0.00,0,,310
2013-11-2,71,55,39,48,41,35,92,62,31,30.05,30.00,29.93,10,10,10,16,4,23,0.00,1,,343
2013-11-3,59,47,34,37,33,27,82,56,30,30.13,30.04,29.96,10,10,10,14,3,20,0.00,0,,335
2013-11-4,69,50,31,35,31,26,92,57,22,30.14,30.05,29.98,10,10,9,16,3,21,0.00,0,,330
2013-11-5,75,55,34,45,38,31,86,57,27,30.23,30.18,30.12,10,10,10,10,1,16,0.00,0,,323
2013-11-6,77,60,43,46,44,41,92,62,31,30.28,30.21,30.15,10,10,10,7,1,12,0.00,0,,303
2013-11-7,75,61,47,49,44,40,86,58,29,30.19,30.13,30.07,10,10,10,15,3,18,0.00,0,,309
2013-11-8,73,57,41,47,42,37,96,64,31,30.12,30.04,29.94,10,10,8,10,1,13,0.00,0,,330
2013-11-9,77,57,37,43,40,34,92,59,26,30.05,30.00,29.93,10,10,10,8,1,13,0.00,0,,172
2013-11-10,73,55,37,43,38,32,92,59,25,30.10,30.06,30.02,10,10,10,15,3,22,0.00,0,,160
2013-11-11,73,53,33,43,37,31,89,58,27,30.16,30.11,30.05,10,10,10,16,3,24,0.00,0,,175
2013-11-12,76,62,48,47,42,38,80,53,25,30.28,30.23,30.18,10,10,4,12,2,13,0.02,3,Rain,338
2013-11-13,80,60,40,47,43,38,89,61,32,30.29,30.20,30.12,10,10,10,12,1,14,0.00,0,,305
2013-11-14,70,56,42,46,39,29,96,62,28,30.12,30.03,29.93,10,10,2,20,5,28,0.00,0,,358
2013-11-15,66,51,35,37,36,34,79,54,29,29.92,29.82,29.74,10,10,9,13,2,15,0.00,0,,288
2013-11-16,63,51,39,45,40,34,89,67,44,29.93,29.85,29.80,10,10,10,14,4,18,0.00,1,,325
2013-11-17,66,51,36,42,39,35,92,66,40,30.09,30.02,29.94,10,10,10,6,0,8,0.00,2,,270
2013-11-18,60,48,35,47,40,32,93,71,49,30.16,30.09,30.05,10,10,6,13,4,17,0.17,3,Rain,162
2013-11-19,56,52,48,54,50,46,93,90,86,30.08,29.98,29.90,10,8,1,14,7,21,0.53,8,Rain,161
2013-11-20,61,56,50,55,52,46,100,89,77,29.91,29.88,29.82,10,9,2,12,2,14,0.13,8,Rain,31
2013-11-21,66,56,46,48,28,4,93,51,8,30.03,29.98,29.90,10,10,10,20,6,26,0.00,2,,347
2013-11-22,77,62,47,19,0,-9,16,10,3,30.05,29.99,29.95,10,10,10,20,10,33,0.00,0,,332
2013-11-23,74,54,34,29,22,11,64,37,9,30.12,30.02,29.95,10,10,9,12,2,20,0.00,0,,318
2013-11-24,66,47,27,32,28,25,92,58,24,30.27,30.19,30.12,10,9,2,5,0,10,0.00,0,,-1
2013-11-25,64,47,29,34,31,27,92,60,27,30.37,30.30,30.25,10,10,6,6,0,14,0.00,0,,290
2013-11-26,62,48,33,38,34,31,89,62,35,30.29,30.18,30.06,10,10,8,5,0,7,0.00,0,,300
2013-11-27,68,50,32,38,35,30,89,61,32,30.04,29.92,29.83,10,10,4,10,1,14,0.00,0,,136
2013-11-28,70,53,35,40,37,34,92,60,28,30.10,29.98,29.89,10,10,8,6,1,8,0.00,0,,303
2013-11-29,70,52,33,41,36,31,96,62,28,30.24,30.16,30.11,10,10,10,6,0,8,0.00,0,,275
2013-11-30,70,53,36,40,38,34,85,58,31,30.30,30.25,30.18,10,10,8,5,0,7,0.00,0,,280